TimeCDT,TemperatureF,Dew PointF,Humidity,Sea Level PressureIn,VisibilityMPH,Wind Direction,Wind SpeedMPH,Gust SpeedMPH,PrecipitationIn,Events,Conditions,WindDirDegrees,DateUTC
12:53 AM,64.0,39.9,41,30.16,10.0,East,5.8,-,N/A,,Overcast,90,2012-10-11 05:53:00
1:53 AM,63.0,41.0,45,30.15,10.0,East,6.9,-,N/A,,Overcast,90,2012-10-11 06:53:00
2:53 AM,63.0,43.0,48,30.14,10.0,East,8.1,-,N/A,,Overcast,90,2012-10-11 07:53:00
3:29 AM,62.6,42.8,48,30.15,10.0,East,6.9,-,N/A,,Overcast,90,2012-10-11 08:29:00
3:53 AM,62.1,41.0,46,30.14,10.0,East,6.9,-,N/A,,Overcast,100,2012-10-11 08:53:00
4:53 AM,62.1,41.0,46,30.14,10.0,East,8.1,-,0.00,Rain,Light Rain,90,2012-10-11 09:53:00
5:53 AM,61.0,43.0,52,30.15,10.0,ENE,6.9,-,N/A,,Overcast,70,2012-10-11 10:53:00
6:53 AM,61.0,42.1,50,30.16,10.0,East,6.9,-,N/A,,Overcast,90,2012-10-11 11:53:00
7:53 AM,61.0,43.0,52,30.16,10.0,East,8.1,-,N/A,,Overcast,80,2012-10-11 12:53:00
8:53 AM,60.1,45.0,57,30.18,10.0,ENE,8.1,-,0.00,Rain,Light Rain,70,2012-10-11 13:53:00
9:53 AM,57.2,50.0,77,30.20,5.0,ENE,9.2,-,N/A,Rain,Light Rain,60,2012-10-11 14:53:00
10:53 AM,57.0,51.1,81,30.20,10.0,NE,9.2,-,0.06,,Overcast,50,2012-10-11 15:53:00
11:53 AM,59.0,51.1,75,30.19,10.0,ENE,12.7,-,N/A,,Overcast,60,2012-10-11 16:53:00
12:36 PM,60.8,51.8,72,30.19,10.0,East,13.8,-,N/A,,Overcast,80,2012-10-11 17:36:00
12:53 PM,62.1,52.0,70,30.18,10.0,ENE,9.2,-,N/A,,Overcast,60,2012-10-11 17:53:00
1:53 PM,68.0,53.1,59,30.14,10.0,NE,11.5,-,N/A,,Partly Cloudy,50,2012-10-11 18:53:00
2:53 PM,70.0,55.0,59,30.11,10.0,ENE,11.5,-,N/A,,Partly Cloudy,60,2012-10-11 19:53:00
3:53 PM,72.0,55.9,57,30.10,10.0,East,10.4,-,N/A,,Clear,80,2012-10-11 20:53:00
4:53 PM,73.4,57.2,57,30.08,10.0,ENE,10.4,-,N/A,,Clear,60,2012-10-11 21:53:00
5:53 PM,72.0,57.0,59,30.08,10.0,ENE,10.4,-,N/A,,Clear,60,2012-10-11 22:53:00
6:53 PM,69.1,57.0,65,30.09,10.0,East,4.6,-,N/A,,Clear,80,2012-10-11 23:53:00
7:53 PM,64.4,57.2,77,30.10,10.0,Calm,Calm,-,N/A,,Clear,0,2012-10-12 00:53:00
8:53 PM,64.0,57.0,78,30.11,10.0,ENE,3.5,-,N/A,,Clear,60,2012-10-12 01:53:00
9:53 PM,64.0,57.0,78,30.13,10.0,NE,6.9,-,N/A,,Clear,40,2012-10-12 02:53:00
10:53 PM,64.0,57.9,80,30.14,10.0,NE,8.1,-,N/A,,Overcast,50,2012-10-12 03:53:00
11:53 PM,64.0,57.0,78,30.15,10.0,NE,8.1,-,N/A,,Overcast,50,2012-10-12 04:53:00